Wind_Speed
20 20 21 21 22 23 24 24 24 24 25 26 26 27 28 29 31 31 32 33 34 34 35 37 39 40 41 43 44 44 46 48 51 52 53 54 56 58 59 60 61 62 64 65
21 21 21 22 23 23 24 25 25 26 26 27 26 26 27 28 29 31 31 31 32 34 34 35 37 39 41 41 42 42 43 45 48 50 51 52 54 55 57 59 60 61 62 64
22 22 23 23 24 24 25 26 27 27 27 27 28 27 28 29 30 30 31 31 32 34 34 34 35 38 39 40 41 42 42 43 46 48 50 52 54 56 56 57 58 59 60 62
23 24 24 24 25 26 26 27 28 28 28 28 28 29 29 30 30 30 31 32 34 34 34 35 36 38 39 40 41 42 42 44 45 46 50 52 53 54 54 55 56 58 59 60
24 24 25 25 26 27 28 28 29 29 29 29 29 30 30 30 30 31 32 33 35 35 35 36 36 37 39 40 41 42 43 44 45 46 47 49 51 52 52 53 54 56 58 59
25 26 26 26 27 28 29 29 30 29 29 29 29 31 32 32 31 32 32 33 34 35 36 36 37 38 39 40 40 41 43 43 44 46 47 48 50 50 50 51 52 53 56 58
26 26 27 28 28 28 29 30 31 31 31 31 30 31 32 33 33 33 34 34 35 36 37 38 39 39 41 41 40 40 41 42 43 44 46 48 48 48 48 48 50 51 53 55
28 28 28 28 29 29 29 30 30 32 33 33 32 32 33 34 35 36 36 37 37 37 38 40 41 41 41 41 40 40 40 41 43 44 45 46 46 46 47 47 49 50 50 52
29 29 29 29 29 30 30 30 31 33 35 35 34 34 34 35 36 36 37 37 38 38 39 41 41 41 42 42 41 41 41 41 41 42 44 44 44 44 44 44 46 47 48 50
31 31 30 30 30 30 31 32 32 33 36 38 36 35 36 37 37 37 38 39 39 39 40 41 41 41 43 42 42 42 42 41 41 42 43 42 41 41 41 41 41 43 45 46
32 32 32 32 31 31 32 32 33 35 36 38 39 37 38 38 39 39 39 39 39 40 41 42 41 42 43 42 42 42 41 40 40 40 40 39 38 38 37 37 39 40 42 43
33 34 33 33 33 33 33 33 34 35 36 37 39 37 37 38 39 40 40 40 41 40 41 42 42 43 43 43 42 42 40 39 38 37 36 36 35 35 35 35 36 37 38 40
34 35 35 35 34 33 33 33 35 36 36 37 38 37 38 39 40 41 41 41 41 41 41 42 42 43 43 43 42 41 38 37 36 35 34 34 34 34 34 34 35 35 36 37
35 35 35 35 35 35 34 34 35 37 37 38 38 38 37 40 41 41 41 41 42 42 42 42 43 43 43 42 41 39 37 35 33 33 32 32 32 32 32 33 32 33 34 36
36 36 35 34 35 35 35 35 36 37 38 38 38 38 39 40 41 41 41 41 41 41 42 43 43 43 42 41 39 38 37 33 32 31 31 31 30 30 30 30 30 30 31 32
37 37 36 35 35 36 36 36 37 38 38 38 39 39 40 41 42 41 41 41 42 42 42 42 43 42 42 40 38 37 36 33 31 31 31 30 29 28 28 28 28 30 31 30
38 38 38 37 37 38 38 36 37 37 38 39 40 40 41 42 41 42 42 43 43 43 42 42 43 42 41 41 38 37 36 33 32 32 30 29 28 27 25 25 26 27 29 29
38 38 39 39 38 39 38 37 37 38 38 40 40 41 43 43 42 43 44 44 43 43 43 43 43 41 41 40 38 36 35 33 32 31 29 27 26 24 23 24 25 26 26 27
38 38 38 39 40 40 38 38 38 39 39 40 42 43 44 43 42 43 43 43 43 43 43 43 42 42 41 39 37 35 34 33 31 28 26 25 24 23 22 22 22 23 25 25
38 37 39 40 42 41 39 38 39 41 41 41 43 44 45 44 44 43 43 42 42 42 43 43 42 41 40 38 37 36 33 31 29 27 25 24 23 22 21 21 21 22 23 25
39 39 40 41 42 42 40 40 41 42 43 44 45 45 45 45 45 44 44 43 43 43 42 42 41 40 39 38 37 35 31 28 27 26 26 25 24 22 21 21 21 21 22 24
41 41 41 41 43 42 42 42 43 43 44 45 45 45 45 45 44 44 44 43 42 42 41 41 40 39 38 37 36 33 30 28 27 26 25 24 24 24 23 22 21 21 21 22
42 42 43 43 43 43 43 44 44 45 44 45 45 45 45 45 44 44 43 43 42 41 40 39 39 39 37 36 35 32 31 29 27 26 25 24 23 24 23 22 22 21 21 23
43 43 44 44 44 44 44 44 44 44 44 45 45 45 45 44 44 44 43 42 41 40 39 39 39 39 37 36 34 32 31 28 26 25 24 23 22 22 21 21 20 20 20 21
43 43 44 44 43 44 43 43 43 44 44 44 45 45 45 44 44 44 43 42 41 40 39 39 39 38 36 34 32 31 29 27 25 24 23 22 20 20 20 20 20 19 19 19
44 44 45 44 44 45 44 43 43 44 43 44 45 45 44 44 43 42 42 41 39 39 38 38 38 36 34 33 31 30 28 27 25 23 22 21 19 19 18 18 19 19 18 18
Wind_Direction
294 295 298 301 303 304 306 306 306 305 304 304 302 299 298 297 297 298 299 298 297 296 295 292 288 284 284 281 275 270 268 266 263 261 260 259 259 258 259 258 257 255 253 251
292 293 296 300 302 304 305 306 306 305 304 304 304 303 302 300 301 302 301 301 300 300 299 295 291 289 287 284 279 275 273 270 266 263 261 261 261 261 260 260 259 257 254 252
290 292 295 298 300 303 304 305 305 305 305 305 306 306 305 304 304 304 303 302 301 302 300 298 295 294 291 286 283 280 277 274 271 268 265 265 264 263 262 261 259 257 254 253
290 292 294 296 299 302 303 304 304 305 305 307 308 308 309 307 307 306 305 304 304 304 303 301 300 298 295 291 288 284 279 277 275 272 270 268 266 265 263 261 259 256 254 252
291 292 294 296 298 300 302 303 303 304 305 307 309 308 310 310 308 307 306 306 306 306 304 303 303 301 301 297 292 287 282 280 277 276 274 273 269 267 265 262 259 256 254 251
290 292 294 296 297 299 301 302 302 302 305 307 310 309 310 311 309 307 306 307 307 307 305 305 305 304 304 300 296 291 286 283 281 278 277 275 272 269 266 263 260 257 254 250
289 292 294 296 297 298 300 301 301 303 305 308 310 309 310 310 310 308 307 307 307 307 307 308 307 306 305 302 299 295 290 286 283 280 279 278 274 270 267 265 263 259 254 251
288 291 293 295 296 297 298 299 301 303 305 307 308 309 311 311 310 308 308 308 308 308 308 309 309 308 308 305 301 297 292 288 285 283 282 280 275 271 268 265 263 259 254 250
287 290 293 294 295 296 297 298 299 301 302 305 307 308 309 310 309 309 309 309 309 309 309 310 310 310 309 307 304 300 295 291 287 285 284 281 276 272 270 267 263 259 254 250
284 287 290 292 293 295 297 299 299 300 302 305 307 309 311 311 311 310 310 311 310 310 311 312 311 311 310 308 306 302 298 294 291 287 284 281 278 275 271 267 262 257 253 250
281 284 287 290 292 295 296 298 299 298 300 304 306 310 311 311 311 310 310 311 311 311 312 312 313 313 310 308 306 304 300 297 294 291 285 281 279 275 272 268 262 257 252 250
280 282 285 287 290 293 295 297 298 299 301 302 304 309 309 310 310 311 310 311 312 312 313 313 314 313 311 309 306 303 300 299 297 294 288 282 280 276 270 267 261 256 253 250
279 281 284 286 289 291 294 296 297 298 299 302 304 309 309 308 309 310 310 312 312 313 312 314 314 313 311 310 307 303 300 299 297 296 293 286 281 277 271 266 260 254 252 248
277 279 282 285 289 291 293 295 296 298 300 302 304 308 309 309 309 310 310 312 312 312 313 314 314 314 312 311 308 304 300 299 296 295 292 288 283 277 272 266 260 254 251 246
275 278 280 282 285 288 291 293 294 297 299 301 304 307 309 309 309 310 310 311 312 313 314 314 314 313 313 311 309 304 301 298 296 294 291 288 284 280 273 264 258 253 249 245
273 276 278 280 283 286 289 292 295 296 299 300 302 306 307 307 307 308 308 309 311 313 313 314 314 313 312 312 310 305 301 297 295 293 291 288 286 283 274 264 254 249 246 243
273 275 278 280 283 285 288 293 294 295 298 299 302 305 305 306 306 308 309 310 311 312 313 313 314 313 312 312 310 305 301 298 294 291 289 287 284 279 271 261 254 248 245 243
272 275 278 280 282 284 290 292 293 294 296 299 301 303 304 304 306 308 309 310 310 311 312 312 313 313 312 311 309 305 301 298 297 293 288 286 283 278 271 264 256 247 243 242
271 275 278 280 282 285 289 292 293 294 295 299 301 302 303 304 305 308 309 309 309 310 311 312 312 312 311 310 308 304 300 297 296 293 289 285 281 276 271 264 256 248 244 238
269 272 275 279 282 285 290 291 292 293 295 298 299 301 302 304 306 308 308 308 308 309 310 312 312 311 310 307 306 304 299 297 293 291 288 284 281 277 270 265 256 248 242 235
268 270 274 278 281 285 289 291 292 294 296 297 299 301 303 305 306 308 309 308 308 309 310 311 311 311 310 307 306 304 300 297 292 289 285 283 281 277 269 263 254 245 237 233
267 271 274 278 281 286 289 290 291 292 294 296 299 301 303 304 306 307 308 308 308 308 309 310 311 311 310 308 307 305 300 295 292 288 283 282 278 273 268 259 252 243 235 232
268 271 274 277 281 285 287 288 290 291 293 295 298 300 302 303 305 306 307 308 308 308 308 309 310 310 308 308 307 304 299 294 290 287 283 280 276 268 262 254 250 244 237 231
269 271 274 277 280 282 284 287 288 290 292 294 297 299 300 302 303 305 307 307 307 308 308 309 308 308 307 307 305 303 298 293 289 285 281 277 272 265 258 252 247 239 232 226
268 270 273 275 278 279 282 285 287 289 291 293 296 298 299 301 302 305 306 306 306 307 307 307 307 307 306 305 304 302 298 291 286 281 278 274 268 262 254 246 239 235 228 224
267 270 272 275 278 280 282 284 286 288 290 292 294 297 298 300 302 303 305 304 305 305 306 306 307 306 305 305 304 302 299 291 283 278 273 268 263 258 249 238 230 227 224 218
Height
5747 5746 5744 5741 5739 5736 5733 5730 5727 5723 5719 5716 5712 5708 5704 5700 5696 5692 5688 5683 5679 5676 5672 5669 5665 5663 5660 5657 5655 5654 5653 5652 5652 5653 5654 5656 5657 5658 5659 5660 5662 5664 5667 5671
5742 5740 5738 5735 5732 5730 5727 5723 5720 5717 5712 5709 5705 5702 5697 5693 5689 5685 5680 5676 5672 5668 5664 5659 5655 5652 5649 5646 5643 5641 5640 5638 5637 5638 5639 5640 5641 5641 5643 5643 5644 5646 5649 5652
5735 5734 5731 5729 5726 5723 5720 5717 5713 5710 5706 5702 5698 5695 5691 5687 5682 5678 5673 5669 5665 5660 5656 5651 5647 5643 5639 5635 5632 5630 5628 5626 5625 5624 5624 5625 5625 5626 5626 5627 5628 5629 5631 5634
5729 5727 5725 5722 5719 5716 5713 5710 5706 5702 5699 5695 5692 5687 5685 5680 5675 5671 5666 5661 5657 5652 5648 5643 5638 5634 5629 5625 5622 5619 5616 5614 5612 5610 5610 5609 5609 5609 5609 5610 5611 5612 5614 5616
5722 5720 5718 5715 5713 5709 5706 5703 5699 5695 5691 5688 5685 5680 5678 5672 5667 5663 5658 5653 5648 5644 5639 5634 5629 5624 5619 5615 5611 5607 5604 5602 5599 5597 5595 5594 5593 5593 5592 5592 5594 5595 5597 5599
5715 5713 5710 5708 5705 5702 5698 5695 5692 5688 5685 5682 5678 5673 5669 5664 5659 5655 5650 5645 5640 5635 5630 5625 5620 5614 5609 5604 5599 5595 5592 5589 5586 5584 5581 5579 5578 5577 5577 5577 5577 5579 5581 5584
5708 5705 5703 5700 5697 5695 5691 5688 5685 5680 5677 5675 5670 5665 5662 5656 5651 5646 5641 5636 5631 5626 5621 5616 5611 5605 5600 5594 5589 5584 5580 5577 5573 5570 5568 5564 5562 5561 5561 5561 5561 5562 5564 5568
5699 5698 5696 5693 5690 5687 5684 5681 5678 5673 5669 5666 5662 5657 5654 5648 5642 5637 5632 5626 5621 5617 5612 5606 5600 5595 5589 5584 5578 5573 5569 5565 5561 5557 5554 5550 5547 5545 5545 5545 5545 5546 5548 5551
5691 5690 5688 5685 5682 5679 5676 5673 5670 5665 5660 5657 5654 5650 5646 5640 5634 5628 5623 5618 5613 5608 5603 5597 5591 5585 5579 5573 5568 5562 5558 5553 5549 5545 5541 5536 5533 5531 5530 5529 5529 5530 5532 5535
5682 5681 5679 5676 5674 5671 5668 5665 5661 5657 5652 5648 5645 5642 5637 5631 5625 5619 5614 5608 5604 5599 5593 5587 5581 5575 5569 5563 5557 5551 5546 5541 5536 5532 5527 5523 5520 5517 5516 5515 5515 5515 5518 5521
5673 5672 5670 5668 5666 5663 5660 5657 5652 5648 5644 5639 5635 5636 5629 5622 5615 5610 5605 5599 5594 5589 5583 5578 5572 5566 5559 5553 5547 5541 5535 5529 5524 5520 5515 5511 5508 5505 5504 5503 5503 5503 5505 5508
5664 5663 5661 5660 5657 5654 5651 5648 5644 5641 5636 5631 5626 5628 5620 5614 5607 5601 5596 5591 5585 5580 5574 5568 5562 5556 5549 5543 5537 5531 5525 5519 5514 5509 5504 5500 5497 5495 5493 5492 5492 5493 5494 5496
5654 5653 5652 5650 5650 5647 5643 5639 5635 5631 5627 5623 5618 5619 5611 5605 5598 5593 5587 5582 5576 5570 5565 5559 5553 5547 5540 5534 5527 5521 5515 5510 5505 5500 5495 5491 5488 5486 5484 5483 5482 5483 5484 5486
5644 5643 5643 5642 5638 5635 5633 5631 5626 5622 5618 5614 5611 5608 5603 5595 5589 5584 5579 5573 5567 5562 5556 5550 5544 5537 5531 5524 5518 5512 5506 5501 5496 5491 5487 5483 5480 5477 5475 5475 5474 5474 5475 5477
5633 5633 5632 5631 5629 5626 5624 5621 5617 5613 5610 5606 5603 5598 5594 5587 5581 5575 5570 5564 5559 5553 5547 5541 5535 5528 5522 5515 5509 5503 5497 5493 5488 5483 5479 5475 5472 5469 5467 5467 5466 5466 5467 5469
5622 5622 5622 5622 5619 5616 5614 5612 5609 5605 5601 5596 5592 5589 5585 5578 5573 5567 5561 5556 5550 5544 5539 5532 5526 5519 5513 5507 5500 5495 5489 5484 5480 5476 5472 5468 5464 5462 5461 5460 5460 5460 5461 5462
5612 5612 5611 5610 5609 5605 5605 5605 5600 5596 5593 5588 5583 5580 5575 5570 5564 5558 5553 5547 5541 5535 5529 5523 5516 5510 5504 5498 5492 5486 5481 5477 5472 5468 5464 5460 5457 5455 5454 5454 5454 5455 5455 5457
5602 5601 5599 5598 5598 5595 5599 5595 5591 5587 5584 5579 5574 5570 5565 5559 5555 5550 5543 5537 5532 5526 5520 5514 5508 5502 5496 5490 5484 5478 5473 5468 5464 5460 5456 5453 5450 5449 5449 5449 5449 5449 5450 5452
5592 5591 5588 5587 5584 5584 5587 5585 5580 5576 5574 5570 5565 5560 5555 5550 5546 5542 5535 5528 5522 5516 5510 5504 5499 5493 5487 5481 5476 5470 5466 5461 5457 5453 5450 5447 5445 5443 5443 5443 5444 5444 5445 5447
5581 5580 5579 5576 5573 5573 5577 5574 5569 5565 5563 5561 5555 5550 5545 5540 5535 5532 5525 5519 5513 5507 5501 5495 5490 5484 5478 5473 5467 5463 5458 5454 5450 5447 5445 5443 5441 5439 5438 5438 5438 5439 5441 5443
5570 5569 5568 5566 5562 5562 5565 5562 5558 5555 5553 5549 5544 5539 5534 5529 5525 5520 5514 5508 5503 5497 5492 5486 5481 5475 5469 5464 5460 5455 5451 5447 5444 5441 5439 5437 5435 5434 5434 5433 5434 5435 5437 5439
5558 5557 5557 5555 5552 5555 5553 5549 5547 5544 5540 5536 5532 5528 5524 5519 5514 5509 5504 5498 5493 5488 5483 5477 5472 5467 5461 5456 5452 5447 5443 5440 5437 5435 5433 5431 5430 5429 5428 5428 5429 5430 5432 5435
5546 5547 5545 5545 5545 5543 5540 5537 5534 5531 5528 5525 5521 5518 5513 5509 5504 5500 5495 5489 5484 5479 5474 5468 5463 5459 5454 5448 5443 5439 5436 5433 5430 5428 5426 5425 5423 5423 5422 5423 5424 5425 5427 5430
5534 5534 5533 5532 5533 5531 5527 5524 5522 5519 5516 5513 5510 5507 5502 5498 5494 5490 5485 5480 5475 5470 5465 5460 5455 5450 5446 5440 5435 5431 5427 5425 5422 5421 5419 5418 5416 5416 5416 5417 5419 5421 5423 5425
5522 5521 5520 5519 5521 5518 5516 5513 5511 5508 5505 5502 5499 5495 5491 5488 5484 5479 5475 5470 5465 5461 5456 5451 5446 5441 5437 5432 5427 5423 5420 5417 5415 5413 5412 5411 5410 5409 5410 5412 5413 5416 5418 5421
5511 5509 5508 5508 5508 5504 5504 5502 5499 5497 5495 5492 5489 5485 5481 5477 5473 5469 5465 5460 5456 5451 5446 5442 5437 5432 5428 5423 5419 5416 5412 5409 5407 5406 5404 5404 5403 5403 5404 5406 5409 5411 5414 5417